DELTA 1 DEB, 3123

Orbit data source: Space-Track

DELTA 1 DEB, 3123 is space debris in SSO originally from a launch on Fri, 10 Nov 1967 UTC launched from the Air Force Western Test Range (AFWTR). Debris objects in space refer to the collection of defunct objects orbiting the Earth. Examples of debris include non-operational satellites, rocket bodies, and fragments generated from explosions, collisions, or faulty payload assembly.

Loading next visibility...
Identifier
3123, 1967-114D
Orbit
SSO
Country
Flag of USUS
Related business
Manufacturer
Unknown
Mission
Spacecraft
Bus & Motor
Unknown
Mass
Unknown
Launch date (UTC)
1967-11-10 (58 years ago)
Launch vehicle
Unknown
Launch site
Air Force Western Test Range (AFWTR)
Object type
Payload
Rocket body
Debris
Shape & HBR
Unknown
Radar Cross Section
Small (<0.1 m²)

Expand to show TLE details & history
Last TLE update: 13 hours ago

TLE from 13 hours ago
0 DELTA 1 DEB
1 03123U 67114D   25258.26543946 -.00000030  00000-0  11904-3 0  9991
2 03123 102.4405  17.7500 0028338  49.6503 338.9536 12.48094031634460
Epoch: 2025-09-15T06:22Z
TLE epoch observation values (Epoch: 2025-09-15T06:22:13.969Z)
Latitude
27.80046°
Longitude
-78.92721°
Altitude
1,454.809 km
Speed
7.147 km/s
True Right ascension
00h 44m 24s
True Declination
27° 40' 17"
Sunlit
Object was in full shadow at epoch
Visualization orbit readout
Latitude
Unknown
Longitude
Unknown
Altitude
Unknown
Speed
Unknown
Apparent Right ascension
Unknown
Apparent Declination
Unknown
Sunlit
N/A
Visualization observer readout
Local Sidereal Time
11:54:05
Azimuth
Unknown
Elevation
Unknown
Doppler factor
Unknown
Orbital elements
Apogee altitude
1,492.308 km
Perigee altitude
1,447.828 km
Semi-major axis
7,848.205 km
Eccentricity
0.00283
Inclination
102.4405°
RAAN
17.75°
Arg. of periapsis
49.6503°
True anomaly
338.8366°
Mean anomaly
338.9536°
Eccentric anomaly
338.89514°
Mean motion
3.12167 °/min
Orbital period
115.32 mins
BSTAR
0.00011904
Loading maneuver chart data...
Computing Atmospheric mass density...
Loading historical data...
Loading historical data...
Loading historical data...
Loading historical data...
Loading historical data...
Loading historical data...
Loading historical data...
Other satellites on launch #114 in the year 1967 (1967-11-10 UTC)

Documentation

Showing up to 5 results
|